Location: Dillon
(41.1766°N, 107.0923°W)
Time: 08:42:21
(UTC+00:00)

DIWATA 2B (PO-101) - Visible Passes

Search period start: 27 June 2022 00:00
Search period end: 07 July 2022 00:00
Orbit: 585 x 597 km, 98.0° (Epoch: 26 June)

Date Brightness Start Highest point End Pass type
(mag) Time Alt. Az. Time Alt. Az. Time Alt. Az.
27 Jun ? 09:08:28 48° S 09:09:35 81° WSW 09:13:49 10° NNW visible
28 Jun ? 07:41:28 10° E 07:42:59 12° ENE 07:44:30 10° NE visible
28 Jun ? 09:16:55 47° SSW 09:17:56 65° W 09:22:08 10° NNW visible
29 Jun ? 07:48:58 10° E 07:51:13 14° ENE 07:53:29 10° NNE visible
29 Jun ? 09:25:22 42° SW 09:26:17 52° W 09:30:25 10° NNW visible
30 Jun ? 07:57:15 12° E 07:59:28 17° ENE 08:02:14 10° NNE visible
30 Jun ? 09:33:49 37° SW 09:34:39 41° W 09:38:40 10° NNW visible
01 Jul ? 08:05:42 15° ESE 08:07:44 21° ENE 08:10:53 10° NNE visible
01 Jul ? 09:42:16 31° WSW 09:43:01 33° W 09:46:52 10° NNW visible
02 Jul ? 08:14:10 19° ESE 08:16:00 25° ENE 08:19:27 10° NNE visible
02 Jul ? 09:50:44 26° WSW 09:51:25 27° W 09:55:01 10° NW visible
03 Jul ? 08:22:37 23° ESE 08:24:16 30° ENE 08:27:59 10° N visible
03 Jul ? 09:59:11 21° WSW 09:59:47 22° W 10:03:07 10° NW visible
04 Jul ? 08:31:05 28° ESE 08:32:34 37° ENE 08:36:28 10° N visible
04 Jul ? 10:07:38 18° WSW 10:08:12 18° W 10:11:08 10° NW visible
05 Jul ? 08:39:32 34° ESE 08:40:52 45° ENE 08:44:54 10° N visible
05 Jul ? 10:16:06 14° W 10:16:37 15° W 10:19:01 10° WNW visible
06 Jul ? 08:48:00 41° SE 08:49:10 57° ENE 08:53:18 10° N visible
06 Jul ? 10:24:34 12° W 10:25:02 12° W 10:26:38 10° WNW visible
